Weather History for Belgrade Nikola Tesla, Serbia

Change the Weather History Date:

Tuesday, July 24, 2012

  Actual Average Record
Temperature  
Mean Temperature 72 °F -  
Max Temperature 78 °F 79 °F 109 °F (2007)
Min Temperature 66 °F 60 °F 53 °F (1996)
Cooling Degree Days 7    
Growing Degree Days 22 (Base 50)    
Moisture  
Dew Point 62 °F    
Average Humidity 71    
Maximum Humidity 100    
Minimum Humidity 49    
Precipitation  
Precipitation 0.00 in - - ()
Sea Level Pressure  
Sea Level Pressure 30.02 in    
Wind  
Wind Speed 7 mph ()    
Max Wind Speed 22 mph    
Max Gust Speed -    
Visibility 7.2 miles    
Events Rain    
Averages and records for this station are not official NWS values.
T = Trace of Precipitation, MM = Missing Value Source: Averaged Metar Reports

Daily Weather History Graph

Daily Weather History Graph

Search for Another Location

Airport:

Trip Planner

Search our weather history database for the weather conditions in past years. The results will help you decide how hot, cold, wet, or windy it might be!

Date:

Astronomy

Jul. 24, 2012 Rise Set
Actual Time 5:16 AM CEST 8:13 PM CEST
Civil Twilight 4:41 AM CEST 8:48 PM CEST
Nautical Twilight 3:57 AM CEST 9:32 PM CEST
Astronomical Twilight 3:04 AM CEST 10:24 PM CEST
Moon 11:11 AM CEST (7/24) 10:32 PM CEST (7/24)
Length of Visible Light 16h 06m
Length of Day
14h 57m
Waxing Crescent, 29% of the Moon is Illuminated
Jul 24
Waxing Crescent
Jul 26
First Quarter
Aug 2
Full
Aug 9
Last Quarter
Aug 17
New

Hourly Weather History & Observations

Time (CEST) Temp. Dew Point Humidity Pressure Visibility Wind Dir Wind Speed Gust Speed Precip Events Conditions
12:00 AM 69.8 °F 59.0 °F 68% 30.06 in - West 4.6 mph - N/A   Clear
12:30 AM 71.6 °F 60.8 °F 69% 30.06 in - Variable 1.2 mph - N/A   Clear
1:00 AM 69.8 °F 60.8 °F 73% 30.06 in - NNE 3.5 mph - N/A   Clear
1:30 AM 69.8 °F 60.8 °F 73% 30.06 in - NE 4.6 mph - N/A   Clear
2:00 AM 69 °F 60 °F 67% 30.06 in 19 mi NE 6.7 mph - -   Clear
2:00 AM 69.8 °F 60.8 °F 73% 30.06 in - NE 6.9 mph - N/A   Clear
2:30 AM 69.8 °F 60.8 °F 73% 30.06 in - NE 6.9 mph - N/A   Clear
3:00 AM 69.8 °F 59.0 °F 68% 30.06 in - NE 3.5 mph - N/A   Clear
3:30 AM 68.0 °F 59.0 °F 73% 30.06 in - Variable 2.3 mph - N/A   Clear
4:00 AM 68.0 °F 60.8 °F 78% 30.06 in - ESE 4.6 mph - N/A   Clear
4:30 AM 68.0 °F 59.0 °F 73% 30.06 in - NE 3.5 mph - N/A   Clear
5:00 AM 67 °F 59 °F 67% 30.06 in 19 mi North 2.2 mph - -   Clear
5:00 AM 66.2 °F 59.0 °F 78% 30.06 in - Variable 2.3 mph - N/A   Clear
5:30 AM 68.0 °F 59.0 °F 73% 30.06 in - NNE 3.5 mph - N/A   Clear
6:00 AM 68.0 °F 59.0 °F 73% 30.04 in - Calm Calm - N/A   Clear
6:30 AM 68.0 °F 59.0 °F 73% 30.06 in - East 6.9 mph - N/A   Clear
7:00 AM 71.6 °F 60.8 °F 69% 30.06 in - ENE 6.9 mph - N/A   Clear
7:30 AM 73.4 °F 60.8 °F 65% 30.06 in - East 5.8 mph - N/A   Clear
8:00 AM 74 °F 61 °F 56% 30.06 in 12 mi East 8.9 mph - -   Scattered Clouds
8:30 AM 75.2 °F 60.8 °F 61% 30.06 in 6.2 mi East 11.5 mph - N/A   Partly Cloudy
9:00 AM 75.2 °F 60.8 °F 61% 30.06 in 6.2 mi East 15.0 mph - N/A   Partly Cloudy
9:30 AM 71.6 °F 62.6 °F 73% 30.06 in 4.3 mi ESE 18.4 mph - N/A Rain Light Rain Showers
10:00 AM 69.8 °F 62.6 °F 78% 30.06 in 6.2 mi East 12.7 mph - N/A   Scattered Clouds
10:30 AM 73.4 °F 62.6 °F 69% 30.06 in 6.2 mi East 13.8 mph - N/A   Scattered Clouds
11:00 AM 75 °F 62 °F 56% 30.04 in 12 mi East 13.4 mph - -   Partly Cloudy
11:00 AM 75.2 °F 62.6 °F 65% 30.06 in 6.2 mi East 17.3 mph - N/A   Scattered Clouds
11:30 AM 75.2 °F 60.8 °F 61% 30.06 in - ESE 21.9 mph - N/A   Clear
12:00 PM 73.4 °F 62.6 °F 69% 30.04 in - ESE 18.4 mph - N/A   Clear
12:30 PM 73.4 °F 62.6 °F 69% 30.04 in - ESE 17.3 mph - N/A   Clear
1:00 PM 75.2 °F 62.6 °F 65% 30.04 in 6.2 mi East 17.3 mph - N/A   Scattered Clouds
1:30 PM 77.0 °F 62.6 °F 61% 30.04 in 6.2 mi East 11.5 mph - N/A   Scattered Clouds
2:00 PM 78 °F 62 °F 49% 30.02 in 12 mi ENE 13.4 mph - -   Partly Cloudy
2:00 PM 78.8 °F 62.6 °F 57% 30.04 in 6.2 mi ENE 16.1 mph - N/A   Scattered Clouds
2:30 PM 77.0 °F 60.8 °F 57% 30.01 in 6.2 mi ENE 13.8 mph - N/A   Scattered Clouds
3:00 PM 77.0 °F 60.8 °F 57% 30.01 in 6.2 mi East 17.3 mph - N/A   Scattered Clouds
3:30 PM 77.0 °F 62.6 °F 61% 29.98 in 6.2 mi East 16.1 mph - N/A   Scattered Clouds
4:00 PM 77.0 °F 62.6 °F 61% 29.98 in 6.2 mi ENE 13.8 mph - N/A   Scattered Clouds
4:30 PM 73.4 °F 64.4 °F 73% 29.98 in 6.2 mi East 15.0 mph - N/A   Scattered Clouds
5:00 PM 74 °F 63 °F 61% 29.97 in 12 mi ENE 11.2 mph - -   Partly Cloudy
5:00 PM 75.2 °F 64.4 °F 69% 29.98 in 6.2 mi ENE 11.5 mph - N/A   Scattered Clouds
5:30 PM 75.2 °F 62.6 °F 65% 29.98 in 6.2 mi ENE 11.5 mph - N/A   Scattered Clouds
6:00 PM 75.2 °F 62.6 °F 65% 29.98 in 6.2 mi ENE 12.7 mph - N/A   Partly Cloudy
6:30 PM 73.4 °F 62.6 °F 69% 29.98 in - ENE 9.2 mph - N/A   Clear
7:00 PM 73.4 °F 62.6 °F 69% 29.98 in - NE 10.4 mph - N/A   Clear
7:30 PM 71.6 °F 62.6 °F 73% 29.98 in 6.2 mi NE 9.2 mph - N/A Rain Light Rain Showers
8:00 PM 71 °F 65 °F 75% 29.98 in 6 mi NE 6.7 mph - - Rain Light Rain Showers
8:00 PM 71.6 °F 64.4 °F 78% 29.98 in 6.2 mi NE 9.2 mph - N/A   Partly Cloudy
8:30 PM 69.8 °F 66.2 °F 88% 29.98 in 6.2 mi Variable 2.3 mph - N/A Rain Light Rain Showers
9:00 PM 69.8 °F 66.2 °F 88% 30.01 in 3.1 mi East 3.5 mph - N/A Rain Rain Showers
9:30 PM 68.0 °F 66.2 °F 94% 29.98 in 4.3 mi Variable 1.2 mph - N/A Rain Rain Showers
10:00 PM 68.0 °F 66.2 °F 94% 30.01 in 5.0 mi West 3.5 mph - N/A Rain Light Rain Showers
10:30 PM 68.0 °F 66.2 °F 94% 29.98 in 5.0 mi WNW 3.5 mph - N/A Rain Light Rain Showers
11:00 PM 68 °F 67 °F 96% 29.94 in 4 mi NE 6.7 mph - - Rain Light Rain Showers
11:00 PM 68.0 °F 68.0 °F 100% 29.95 in 3.7 mi NE 9.2 mph - N/A   Partly Cloudy
11:30 PM 68.0 °F 66.2 °F 94% 29.92 in - ENE 10.4 mph - N/A   Clear